Grand Marais Airport, MN

9:33 PM CDT on April 24, 2017 (GMT -0500)
Grand Marais-Cook County

Weather History for KCKC - August, 2013

Change the Weather History Date:

Monday, August 26, 2013

  Actual Average Record
Temperature  
Mean Temperature 74 °F -  
Max Temperature 84 °F 67 °F 84 °F (2013)
Min Temperature 64 °F 48 °F 33 °F (2008)
Cooling Degree Days 9    
Growing Degree Days 24 (Base 50)    
Moisture  
Dew Point 62 °F    
Average Humidity 70    
Maximum Humidity 88    
Minimum Humidity 39    
Precipitation  
Precipitation 0.00 in - - ()
Sea Level Pressure  
Sea Level Pressure 30.00 in    
Wind  
Wind Speed 3 mph (East)    
Max Wind Speed 7 mph    
Max Gust Speed -    
Visibility 10 miles    
Events Rain , Thunderstorm    
Averages and records for this station are not official NWS values.
T = Trace of Precipitation, MM = Missing Value Source: NWS Daily Summary

Daily Weather History Graph

Daily Weather History Graph

Search for Another Location

Airport or City:

Trip Planner

Search our weather history database for the weather conditions in past years. The results will help you decide how hot, cold, wet, or windy it might be!

Date:

Astronomy

Aug. 26, 2013 Rise Set
Actual Time 6:11 AM CDT 7:53 PM CDT
Civil Twilight 5:39 AM CDT 8:26 PM CDT
Nautical Twilight 4:59 AM CDT 9:05 PM CDT
Astronomical Twilight 4:15 AM CDT 9:49 PM CDT
Moon 10:33 PM CDT (8/26) 12:44 PM CDT (8/26)
Length of Visible Light 14h 46m
Length of Day
13h 41m
Waning Gibbous, 66% of the Moon is Illuminated
Aug 26
Waning Gibbous
Aug 28
Last Quarter
Sep 5
New
Sep 12
First Quarter
Sep 19
Full

Hourly Weather History & Observations

Time (CDT) Temp. Heat Index Dew Point Humidity Pressure Visibility Wind Dir Wind Speed Gust Speed Precip Events Conditions
12:13 AM 69.8 °F - 64.4 °F 83% 29.97 in 10.0 mi West 4.6 mph - N/A Thunderstorm Clear
12:33 AM 69.8 °F - 64.4 °F 83% 29.98 in 10.0 mi WSW 5.8 mph - N/A Thunderstorm Thunderstorm
12:54 AM 69.8 °F - 64.4 °F 83% 29.97 in 7.0 mi WSW 3.5 mph - N/A Rain Light Rain
1:13 AM 69.8 °F - 64.4 °F 83% 29.96 in 10.0 mi Calm Calm - N/A   Scattered Clouds
1:33 AM 68.0 °F - 64.4 °F 88% 29.97 in 7.0 mi West 3.5 mph - N/A   Clear
1:54 AM 69.8 °F - 64.4 °F 83% 29.96 in 10.0 mi Calm Calm - N/A   Clear
2:13 AM 68.0 °F - 64.4 °F 88% 29.96 in 7.0 mi Calm Calm - N/A   Clear
2:34 AM 66.2 °F - 62.6 °F 88% 29.98 in 7.0 mi Calm Calm - N/A   Clear
2:54 AM 66.2 °F - 62.6 °F 88% 29.97 in 7.0 mi NNW 4.6 mph - N/A   Clear
3:14 AM 66.2 °F - 62.6 °F 88% 29.98 in 10.0 mi NNW 4.6 mph - N/A   Clear
3:34 AM 66.2 °F - 62.6 °F 88% 29.98 in 7.0 mi North 4.6 mph - N/A   Clear
3:54 AM 66.2 °F - 62.6 °F 88% 29.99 in 10.0 mi North 4.6 mph - N/A   Clear
4:13 AM 66.2 °F - 62.6 °F 88% 29.99 in 10.0 mi North 5.8 mph - N/A   Clear
4:34 AM 66.2 °F - 62.6 °F 88% 29.99 in 10.0 mi North 4.6 mph - N/A   Clear
4:54 AM 66.2 °F - 62.6 °F 88% 29.99 in 10.0 mi NNW 5.8 mph - N/A   Clear
5:13 AM 66.2 °F - 60.8 °F 83% 29.99 in 10.0 mi North 5.8 mph - N/A   Clear
5:33 AM 64.4 °F - 59.0 °F 83% 29.99 in 10.0 mi North 3.5 mph - N/A   Clear
5:54 AM 64.4 °F - 59.0 °F 83% 30.00 in 10.0 mi North 4.6 mph - N/A   Clear
6:13 AM 64.4 °F - 59.0 °F 83% 30.00 in 10.0 mi North 4.6 mph - N/A   Clear
6:33 AM 64.4 °F - 60.8 °F 88% 30.00 in 10.0 mi North 5.8 mph - N/A   Clear
6:54 AM 64.4 °F - 60.8 °F 88% 30.01 in 10.0 mi North 3.5 mph - N/A   Clear
7:13 AM 66.2 °F - 60.8 °F 83% 30.02 in 10.0 mi Calm Calm - N/A   Clear
7:34 AM 69.8 °F - 64.4 °F 83% 30.02 in 10.0 mi North 3.5 mph - N/A   Clear
7:53 AM 69.8 °F - 64.4 °F 83% 30.02 in 10.0 mi NNW 3.5 mph - N/A   Clear
8:13 AM 73.4 °F - 64.4 °F 73% 30.02 in 10.0 mi Calm Calm - N/A   Clear
8:34 AM 75.2 °F - 66.2 °F 73% 30.02 in 10.0 mi NNE 5.8 mph - N/A   Clear
8:53 AM 77.0 °F - 64.4 °F 65% 30.02 in 10.0 mi NNE 3.5 mph - N/A   Clear
9:13 AM 78.8 °F - 62.6 °F 57% 30.02 in 10.0 mi NE 4.6 mph - N/A   Clear
9:34 AM 78.8 °F - 60.8 °F 54% 30.03 in 10.0 mi Calm Calm - N/A   Clear
9:53 AM 80.6 °F 80.8 °F 57.2 °F 45% 30.03 in 10.0 mi Calm Calm - N/A   Clear
10:13 AM 82.4 °F 82.0 °F 57.2 °F 42% 30.04 in 10.0 mi ENE 3.5 mph - N/A   Clear
10:34 AM 82.4 °F 82.0 °F 57.2 °F 42% 30.04 in 10.0 mi Calm Calm - N/A   Clear
10:53 AM 82.4 °F 81.7 °F 55.4 °F 39% 30.03 in 10.0 mi ENE 4.6 mph - N/A   Clear
11:13 AM 82.4 °F 81.7 °F 55.4 °F 39% 30.03 in 10.0 mi Calm Calm - N/A   Clear
11:34 AM 84.2 °F 83.5 °F 57.2 °F 40% 30.03 in 10.0 mi NE 4.6 mph - N/A   Clear
11:53 AM 82.4 °F 83.9 °F 64.4 °F 54% 30.02 in 10.0 mi SE 4.6 mph - N/A   Clear
12:13 PM 80.6 °F 82.3 °F 64.4 °F 58% 30.03 in 10.0 mi SE 5.8 mph - N/A   Clear
12:33 PM 80.6 °F 81.8 °F 62.6 °F 54% 30.03 in 10.0 mi SSE 4.6 mph - N/A   Clear
12:54 PM 80.6 °F 81.8 °F 62.6 °F 54% 30.02 in 10.0 mi SSE 3.5 mph - N/A   Clear
1:13 PM 80.6 °F 82.3 °F 64.4 °F 58% 30.02 in 10.0 mi South 4.6 mph - N/A   Clear
1:33 PM 82.4 °F 82.5 °F 59.0 °F 45% 30.02 in 10.0 mi SSE 3.5 mph - N/A   Clear
1:54 PM 82.4 °F 83.4 °F 62.6 °F 51% 30.02 in 10.0 mi SSE 4.6 mph - N/A   Clear
2:14 PM 82.4 °F 82.9 °F 60.8 °F 48% 30.02 in 10.0 mi SE 4.6 mph - N/A   Clear
2:33 PM 82.4 °F 82.9 °F 60.8 °F 48% 30.01 in 10.0 mi SE 4.6 mph - N/A   Clear
2:53 PM 82.4 °F 82.9 °F 60.8 °F 48% 30.00 in 10.0 mi ESE 5.8 mph - N/A   Clear
3:14 PM 82.4 °F 82.9 °F 60.8 °F 48% 30.00 in 10.0 mi SSE 6.9 mph - N/A   Clear
3:33 PM 82.4 °F 82.5 °F 59.0 °F 45% 30.00 in 10.0 mi SSE 6.9 mph - N/A   Clear
3:54 PM 80.6 °F 81.1 °F 59.0 °F 48% 30.00 in 10.0 mi SE 6.9 mph - N/A   Clear
4:13 PM 82.4 °F 82.5 °F 59.0 °F 45% 30.00 in 10.0 mi South 6.9 mph - N/A   Clear
4:33 PM 78.8 °F - 59.0 °F 51% 30.00 in 10.0 mi SSE 4.6 mph - N/A   Clear
4:54 PM 78.8 °F - 59.0 °F 51% 30.01 in 10.0 mi South 5.8 mph - N/A   Clear
5:13 PM 77.0 °F - 60.8 °F 57% 30.00 in 10.0 mi SE 4.6 mph - N/A   Clear
5:33 PM 75.2 °F - 60.8 °F 61% 29.99 in 10.0 mi SE 3.5 mph - N/A   Clear
5:53 PM 75.2 °F - 60.8 °F 61% 29.98 in 10.0 mi Calm Calm - N/A   Clear
6:14 PM 75.2 °F - 62.6 °F 65% 29.98 in 10.0 mi Calm Calm - N/A   Clear
6:33 PM 75.2 °F - 62.6 °F 65% 29.97 in 10.0 mi ESE 3.5 mph - N/A   Clear
6:53 PM 73.4 °F - 62.6 °F 69% 29.98 in 10.0 mi SSE 3.5 mph - N/A   Clear
7:13 PM 73.4 °F - 64.4 °F 73% 29.99 in 10.0 mi Calm Calm - N/A   Clear
7:34 PM 71.6 °F - 64.4 °F 78% 29.99 in 10.0 mi Calm Calm - N/A   Clear
7:54 PM 71.6 °F - 64.4 °F 78% 30.00 in 10.0 mi Calm Calm - N/A   Clear
8:14 PM 69.8 °F - 64.4 °F 83% 30.00 in 10.0 mi Calm Calm - N/A   Clear
8:34 PM 69.8 °F - 64.4 °F 83% 30.00 in 10.0 mi Calm Calm - N/A   Clear
8:53 PM 69.8 °F - 64.4 °F 83% 29.99 in 10.0 mi Calm Calm - N/A   Clear
9:13 PM 69.8 °F - 64.4 °F 83% 29.99 in 10.0 mi Calm Calm - N/A   Clear
9:34 PM 69.8 °F - 64.4 °F 83% 29.98 in 10.0 mi Calm Calm - N/A   Scattered Clouds
9:53 PM 69.8 °F - 62.6 °F 78% 29.98 in 10.0 mi Calm Calm - N/A   Clear
10:14 PM 68.0 °F - 62.6 °F 83% 29.99 in 10.0 mi South 4.6 mph - N/A   Clear
10:34 PM 69.8 °F - 62.6 °F 78% 29.97 in 10.0 mi NE 4.6 mph - N/A   Clear
10:53 PM 68.0 °F - 62.6 °F 83% 29.97 in 10.0 mi Calm Calm - N/A   Clear
11:13 PM 68.0 °F - 62.6 °F 83% 29.96 in 10.0 mi North 6.9 mph - N/A Rain Light Rain
11:33 PM 69.8 °F - 62.6 °F 78% 29.96 in 10.0 mi Calm Calm - N/A Rain Light Rain
11:53 PM 66.2 °F - 62.6 °F 88% 29.97 in 10.0 mi SSE 4.6 mph - N/A   Light Drizzle